Tracking 32938 objects as of 14-Jan-2026
HD Live streaming from Space Station
objects crossing your sky now

FENGYUN 1C DEB

Track FENGYUN 1C DEB now!
10-day predictions


NORAD ID: 32422
Int'l Code: 1999-025DAJ
Perigee: 689.7 km
Apogee: 1,125.5 km
Inclination: 97.8 °
Period: 103.0 minutes
Semi major axis: 7278 km
RCS: 0.0061 m2 (small)
Launch date: May 10, 1999
Source: People's Republic of China (PRC)
Launch site: Taiyaun Space Center, China (TSC)

Note: This is SATELLITE DEBRIS
Your satellite tracking list
Your tracking list is empty




NASA's NSSDC Master Catalog

Two Line Element Set (TLE):
1 32422U 99025DAJ 26012.15177027  .00001411  00000-0  69467-3 0  9991
2 32422  97.8422 144.3007 0299402 205.7807 152.8177 13.98084640635582
Source of the keplerian elements: AFSPC